Location: Unspecified
(38.9820°N, 94.4650°W)
Time: 22:29:25
(UTC-05:00)

Hubble Space Telescope - Visible Passes

Search period start: 28 March 2017 00:00
Search period end: 07 April 2017 00:00
Orbit: 538 x 542 km, 28.5° (Epoch: 27 March)

Date Brightness Start Highest point End Pass type
(mag) Time Alt. Az. Time Alt. Az. Time Alt. Az.
28 Mar 2.8 05:40:53 15° S 05:41:54 16° S 05:44:29 10° SE visible
29 Mar 2.6 05:31:23 17° S 05:31:47 17° S 05:34:33 10° SE visible
30 Mar 2.6 05:21:52 18° S 05:21:52 18° S 05:24:33 10° SE visible
31 Mar 2.7 05:12:23 18° SSE 05:12:23 18° SSE 05:14:30 10° SE visible
01 Apr 2.9 05:02:56 16° SSE 05:02:56 16° SSE 05:04:24 10° SE visible
02 Apr 3.2 04:53:32 13° SSE 04:53:32 13° SSE 04:54:15 10° SE visible
02 Apr 3.0 06:30:18 10° SW 06:31:53 12° SSW 06:33:27 10° S visible
03 Apr 3.1 06:21:30 10° SSW 06:21:44 10° SSW 06:21:59 10° SSW visible
